{"data":{"norad_id":57663,"intl_designator":"2023-124A","name":"STARLINK-30267","alt_names":[],"object_type":"PAYLOAD","status":"ACTIVE","operator":null,"country":"US","launch_date":"2023-08-22","launch_site_code":"AFWTR","launch_vehicle":null,"mission":null,"orbit_class":"UNKNOWN","rcs_meters":null,"size_class":null,"mass_kg":null,"dimensions":null,"purposes":["comms"],"wikipedia_slug":null,"has_3d_model":false,"image_url":null,"decayed_at":null,"tle_current":{"epoch":"2026-09-20T13:33:03.311424Z","epoch_age_seconds":126100,"freshness":"FRESH","line1":"1 57663U 23124A   26263.56462166  .00000743  00000+0  33139-4 0  9990","line2":"2 57663  53.1610  19.5306 0001095  95.8251 264.2876 15.34391442173433","mean_motion":15.34391442,"eccentricity":0.0001095,"inclination_deg":53.161,"raan_deg":19.5306,"arg_perigee_deg":95.8251,"mean_anomaly_deg":264.2876,"bstar":3.3139e-5,"rev_number":17343,"period_min":93.84828151303,"perigee_km":461.97960171327,"apogee_km":463.47775129642,"semimajor_km":6840.8656765048,"source":"CELESTRAK","updated_at":"2026-09-21T09:00:33.669804Z"}}}